COSMOS 2251 DEB, 40793

Orbit data source: Space-Track

COSMOS 2251 DEB, 40793 is space debris in LEO originally from a launch on Wed, 16 Jun 1993 UTC launched from the Plesetsk Missile And Space Complex (PKMTR). The debris from Iridium 33, an American commercial communications satellite, has been tracked extensively since its accidental collision with the defunct Russian satellite Cosmos 2251 in 2009. This event, occurring at high speed in low Earth orbit (LEO), generated thousands of pieces of space debris, significantly increasing the risk of further collisions. The Iridium 33 debris cloud has impacted space traffic management and orbital debris mitigation strategies, making it a subject of ongoing study in space situational awareness.

Loading next visibility...
Identifier
40793, 1993-036BVW
Orbit
LEO
Country
Flag of CISCIS
Related business
Manufacturer
Unknown
Mission
Spacecraft
Bus & Motor
Unknown
Mass
Unknown
Launch date (UTC)
1993-06-16 (33 years ago)
Launch vehicle
Unknown
Launch site
Plesetsk Missile And Space Complex (PKMTR)
Object type
Payload
Rocket body
Debris
Shape & HBR
Unknown shape, 0.1 m
Radar Cross Section
Small (<0.1 m²)

Expand to show TLE details & history
Last TLE update: 21 hours ago

TLE from 21 hours ago
0 COSMOS 2251 DEB
1 40793U 93036BVW 26135.62452155 -.00000027  00000-0 -11315-5 0  9998
2 40793  73.9766 254.9770 0214408  17.7957 343.0539 14.06200750704083
Epoch: 2026-05-15T14:59Z
TLE epoch observation values (Epoch: 2026-05-15T14:59:18.661Z)
Latitude
0.00002°
Longitude
156.79609°
Altitude
726.534 km
Speed
7.568 km/s
True Right ascension
16h 59m 54s
True Declination
0° 00' 00"
Sunlit
Object was in full shadow at epoch
Visualization orbit readout
Latitude
Unknown
Longitude
Unknown
Altitude
Unknown
Speed
Unknown
Apparent Right ascension
Unknown
Apparent Declination
Unknown
Sunlit
N/A
Visualization observer readout
Local Sidereal Time
20:18:23
Azimuth
Unknown
Elevation
Unknown
Doppler factor
Unknown
Orbital elements
Apogee altitude
1,025.47 km
Perigee altitude
714.655 km
Semi-major axis
7,248.199 km
Eccentricity
0.02144
Inclination
73.9766°
RAAN
254.977°
Arg. of periapsis
17.7957°
True anomaly
342.31897°
Mean anomaly
343.0539°
Eccentric anomaly
342.68835°
Mean motion
3.51721 °/min
Orbital period
102.35 mins
BSTAR
-0.0000011315

Documentation

Showing up to 5 results
|